Weather in Novopil

Ukraine / Zhytomyr Region     50°26′27″N   28°27′42″E
temp.,
°C
wind,
m/s
gust,
m/s
humid.,
%
clouds,
%
prec.,
mm/h
press.,
hPa
HPBL,
m
12 may, wed
wed1200:00+12ene38913 0.0 1018123
03:00+11e4109711 0.0 1017292
06:00+10ese5119768 0.0 1017413
09:00+10ese79710 0.0 1018738
12:00+13e896168 0.0 10171425
15:00+12e6867100 0.0 10161383
18:00+11ese4867100 0.0 1015664
21:00+9e227883 0.0 101432
13 may, thu
thu1300:00+7ese239199 0.0 101341
03:00+5se239491 0.0 101238
06:00+6se3495100 0.0 101083
09:00+10sse5772100 0.0 1010598
12:00+14sse785584 0.0 10081636
15:00+11sse71277100 0.0 1008831
18:00+13sse6137697 0.0 1007915
21:00+12sse61382100 0.1 1007566
14 may, fri
fri1400:00+11se51394100 0.3 1007569
03:00+11se5128988 0.3 1007573
06:00+9sse5993100 0.5 1006408
09:00+11sse489295 1.3 1007389
12:00+16s3375100 0.0 1007880
15:00+18s2366100 0.7 10071082
18:00+16sw4681100 2.1 1007551
21:00+12wsw3697100 4.3 1008194
15 may, sat
sat1500:00+12wnw5996100 1.4 1008364
03:00+11w4895100 2.8 1009336
06:00+8w4119498 0.1 1011278
09:00+12w598297 0.1 1011663
12:00+15wnw466315 0.0 10121309
15:00+17wnw355749 0.1 10111357
18:00+18wsw135326 0.0 10111371
21:00+13sse22710 0.0 101115
16 may, sun
sun1600:00+11se33775 0.0 101234
03:00+10e34795 0.0 101245
06:00+9ese3683100 0.0 101298
09:00+15ese5869100 0.0 1012378
12:00+18e6859100 0.0 1011969
15:00+20e7856100 0.0 10101350
18:00+18e51070100 0.0 1009487
21:00+15ene41082100 0.1 1008254